Location: Eastchurch
(51.4000°N, 0.8667°E)
Time: 22:05:24
(UTC+00:00)

SJ-6F - Pass Details

Date: 19 January 2026
Orbit: 541 x 571 km, 97.9° (Epoch: 7 February)

Event Time Altitude Azimuth Distance (km) Brightness Sun altitude
Rises 17:46:04 0° 166° (SSE) 2,761 7.9 -12.5°
Reaches altitude 10° 17:48:12 10° 167° (SSE) 1,865 7.1 -12.8°
Maximum altitude 17:52:15 84° 255° (WSW) 576 4.4 -13.4°
Drops below altitude 10° 17:56:19 10° 345° (NNW) 1,866 7.0 -14.0°
Sets 17:58:27 0° 346° (NNW) 2,763 7.9 -14.3°
